Tracking 19575 objects as of 18-Feb-2019
HD Live streaming from Space Station
objects crossing your sky now

FLOCK 3P 31

Track FLOCK 3P 31 now!
10-day predictions
FLOCK 3P 31 is classified as:


NORAD ID: 42049
Int'l Code: 2017-008DF
Perigee: 492.5 km
Apogee: 502.9 km
Inclination: 97.4 °
Period: 94.4 minutes
Semi major axis: 6868 km
RCS: Unknown
Launch date: February 15, 2017
Source: United States (US)
Launch site: SRIHARIKOTA (SRI)
aabbcc
Your satellite tracking list
Your tracking list is empty




NASA's NSSDC Master Catalog

Two Line Element Set (TLE):
1 42049U 17008DF  19048.72253991  .00000954  00000-0  41026-4 0  9990
2 42049  97.4213 116.8873 0007557 197.3311 162.7670 15.25063027110147
Source of the keplerian elements: AFSPC